Flag Weather past 2 weeks in Port Said, Egypt

Now
59 °F

Scattered clouds.


Feels Like: 56 °F
Forecast: 63 / 66 °F
Wind: 18 mph from North

Location: Port Said Airport

Current Time: Nov 26, 2014 at 8:55:03 AM

Latest Report: Nov 26, 2014 at 8:00 AM


Visibility: N/A

Pressure: 29.95 "Hg

Humidity: 82%

Dew point: 54 °F

Location of Port SaidLocation

Historic Weather in Port Said — Graph

°F

Port Said temperature yesterday

Maximum temperature yesterday: 70 °F (at 2:00 PM)
Minimum temperature yesterday: 59 °F (at 5:00 AM)
Average temperature yesterday: 63 °F

Past Weeks' High & Low Weather Summary

 TemperatureHumidityPressure
High77 °F (Nov 11, 11:00 AM)94% (Nov 26, 3:00 AM)30.15 "Hg (Nov 26, 3:00 AM)
Low57 °F (Nov 26, 6:00 AM)47% (Nov 15, 2:00 PM)29.89 "Hg (Nov 14, 5:00 AM)
Average69 °F73%29.99 "Hg
* Reported Nov 11 7:00 AM — Nov 26 7:00 AM, Port Said, Weather by CustomWeather, © 2014

Note: Actual official high and low records may vary slightly from our data, if they occured in-between our weather recording intervals... More about our weather records

Advertising

Port Said weather history for previous 24 hours

 ConditionsComfort  
Time TempWeatherWind HumidityBarometerVisibility
7:00 AM
Nov 26
59 °FScattered clouds.13 mph88%29.95 "HgN/A
6:00 AM57 °FPassing clouds.13 mph94%29.92 "HgN/A
5:00 AM59 °FClear.14 mph88%29.92 "Hg10 mi
4:00 AM59 °FClear.13 mph88%29.95 "Hg10 mi
3:00 AM59 °FClear.13 mph94%29.95 "Hg10 mi
2:00 AM61 °FClear.14 mph83%29.95 "Hg10 mi
1:00 AM61 °FPassing clouds.14 mph83%29.95 "HgN/A
12:00 AM61 °FPassing clouds.13 mph83%29.95 "HgN/A
11:00 PM
Nov 25
61 °FPassing clouds.17 mph83%29.95 "HgN/A
10:00 PM63 °FPassing clouds.16 mph77%29.95 "HgN/A
9:00 PM63 °FPassing clouds.14 mph77%29.95 "HgN/A
8:00 PM63 °FPassing clouds.20 mph77%29.95 "HgN/A
7:00 PM63 °FPassing clouds.15 mph77%29.95 "HgN/A
6:00 PM64 °FPassing clouds.16 mph73%29.95 "HgN/A
5:00 PM66 °FPassing clouds.12 mph64%29.95 "HgN/A
4:00 PM68 °FScattered clouds.13 mph60%29.95 "HgN/A
3:00 PM68 °FScattered clouds.14 mph60%29.95 "HgN/A
2:00 PM70 °FScattered clouds.10 mph57%29.95 "HgN/A
1:00 PM66 °FPartly sunny.10 mph78%29.95 "HgN/A
12:00 PM68 °FPartly sunny.16 mph64%29.98 "HgN/A
11:00 AM64 °FPartly sunny.10 mph78%29.98 "HgN/A
10:00 AM61 °FScattered clouds.12 mph83%29.98 "HgN/A
9:00 AM59 °FScattered clouds.7 mph88%29.98 "HgN/A
8:00 AM59 °FScattered clouds.9 mph88%29.98 "HgN/A
Weather by CustomWeather, © 2014

See weather overviewHow to use our weather pages